Hourly Weather Rusinovichi

Today, 20 April, Tuesday

Time Temperature Precipitation Wind Pressure Humidity
00:00 +6°C° 0 mm 2 mps 745 mmHg 88%
01:00 +6°C° 0 mm 2 mps 745 mmHg 89%
02:00 +5°C° 0 mm 2 mps 744 mmHg 91%
03:00 +5°C° 0 mm 2 mps 744 mmHg 92%
04:00 +5°C° 0 mm 2 mps 744 mmHg 92%
05:00 +5°C° 0 mm 2 mps 744 mmHg 92%
06:00 +6°C° 0.1 mm 2 mps 744 mmHg 89%
07:00 +5°C° 0.1 mm 3 mps 743 mmHg 86%
08:00 +7°C° 0.1 mm 3 mps 743 mmHg 84%
09:00 +7°C° 0.2 mm 3 mps 743 mmHg 82%
10:00 +7°C° 0.2 mm 3 mps 743 mmHg 80%
11:00 +7°C° 0.2 mm 3 mps 743 mmHg 79%
12:00 +8°C° 0.1 mm 3 mps 742 mmHg 75%
13:00 +8°C° 0.1 mm 3 mps 742 mmHg 71%
14:00 +9°C° 0.1 mm 3 mps 742 mmHg 68%
15:00 +9°C° 0.1 mm 3 mps 741 mmHg 69%
16:00 +8°C° 0.1 mm 3 mps 741 mmHg 71%
17:00 +8°C° 0.1 mm 3 mps 741 mmHg 73%
18:00 +7°C° 0 mm 3 mps 741 mmHg 77%
19:00 +5°C° 0 mm 3 mps 741 mmHg 80%
20:00 +5°C° 0 mm 3 mps 741 mmHg 84%
21:00 +5°C° 0 mm 2 mps 741 mmHg 85%
22:00 +5°C° 0 mm 2 mps 740 mmHg 86%
23:00 +6°C° 0 mm 1 mps 740 mmHg 87%

Tomorrow, 21 April, Wednesday

Time Temperature Precipitation Wind Pressure Humidity
00:00 +5°C° 0 mm 1 mps 740 mmHg 87%
01:00 +5°C° 0 mm 1 mps 740 mmHg 87%
02:00 +5°C° 0 mm 1 mps 739 mmHg 87%
03:00 +5°C° 0 mm 1 mps 739 mmHg 85%
04:00 +5°C° 0 mm 1 mps 739 mmHg 84%
05:00 +5°C° 0 mm 1 mps 739 mmHg 82%
06:00 +6°C° 0 mm 1 mps 739 mmHg 79%
07:00 +7°C° 0 mm 1 mps 739 mmHg 76%
08:00 +7°C° 0 mm 1 mps 739 mmHg 73%
09:00 +7°C° 0.1 mm 2 mps 738 mmHg 69%
10:00 +9°C° 0.1 mm 2 mps 738 mmHg 65%
11:00 +10°C° 0.1 mm 3 mps 738 mmHg 62%
12:00 +10°C° 0.1 mm 3 mps 738 mmHg 58%
13:00 +11°C° 0.1 mm 3 mps 737 mmHg 54%
14:00 +12°C° 0.1 mm 3 mps 737 mmHg 51%
15:00 +12°C° 0.2 mm 3 mps 737 mmHg 55%
16:00 +12°C° 0.2 mm 3 mps 737 mmHg 58%
17:00 +12°C° 0.2 mm 4 mps 737 mmHg 62%
18:00 +10°C° 0.3 mm 3 mps 737 mmHg 69%
19:00 +9°C° 0.3 mm 3 mps 737 mmHg 76%
20:00 +8°C° 0.3 mm 2 mps 737 mmHg 83%
21:00 +7°C° 0 mm 2 mps 737 mmHg 84%
22:00 +7°C° 0 mm 2 mps 738 mmHg 84%
23:00 +6°C° 0 mm 2 mps 738 mmHg 85%

Day after tomorrow, 22 April, Thursday

Time Temperature Precipitation Wind Pressure Humidity
00:00 +6°C° 0 mm 2 mps 738 mmHg 86%
01:00 +6°C° 0 mm 2 mps 738 mmHg 87%
02:00 +5°C° 0 mm 2 mps 738 mmHg 88%
03:00 +5°C° 0 mm 2 mps 738 mmHg 88%
04:00 +5°C° 0 mm 2 mps 738 mmHg 89%
05:00 +6°C° 0 mm 2 mps 738 mmHg 90%
06:00 +7°C° 0 mm 3 mps 738 mmHg 86%
07:00 +7°C° 0 mm 4 mps 738 mmHg 83%
08:00 +8°C° 0 mm 4 mps 738 mmHg 80%
09:00 +9°C° 0.2 mm 5 mps 739 mmHg 74%
10:00 +11°C° 0.2 mm 6 mps 739 mmHg 67%
11:00 +13°C° 0.2 mm 6 mps 739 mmHg 61%
12:00 +13°C° 0.1 mm 6 mps 739 mmHg 59%
13:00 +13°C° 0.1 mm 6 mps 739 mmHg 57%
14:00 +13°C° 0.1 mm 5 mps 739 mmHg 54%
15:00 +13°C° 0.1 mm 5 mps 740 mmHg 56%
16:00 +12°C° 0.1 mm 4 mps 740 mmHg 59%
17:00 +12°C° 0.1 mm 4 mps 740 mmHg 61%
18:00 +11°C° 0.1 mm 3 mps 740 mmHg 67%
19:00 +10°C° 0.1 mm 3 mps 740 mmHg 73%
20:00 +9°C° 0.1 mm 2 mps 740 mmHg 79%
21:00 +8°C° 0.7 mm 2 mps 740 mmHg 82%
22:00 +7°C° 0.7 mm 3 mps 740 mmHg 86%
23:00 +7°C° 0.7 mm 3 mps 740 mmHg 89%

23 April, Friday

Time Temperature Precipitation Wind Pressure Humidity
00:00 +5°C° 0.5 mm 3 mps 740 mmHg 88%
01:00 +6°C° 0.5 mm 2 mps 740 mmHg 86%
02:00 +5°C° 0.5 mm 2 mps 740 mmHg 85%
03:00 +5°C° 0 mm 2 mps 740 mmHg 84%
04:00 +4°C° 0 mm 2 mps 740 mmHg 83%
05:00 +4°C° 0 mm 2 mps 740 mmHg 83%
06:00 +5°C° 0 mm 2 mps 741 mmHg 77%
07:00 +5°C° 0 mm 2 mps 741 mmHg 71%
08:00 +6°C° 0 mm 2 mps 741 mmHg 66%
09:00 +5°C° 0 mm 3 mps 741 mmHg 64%
10:00 +6°C° 0 mm 4 mps 741 mmHg 63%
11:00 +6°C° 0 mm 4 mps 741 mmHg 61%
12:00 +6°C° 0.2 mm 5 mps 741 mmHg 62%
13:00 +5°C° 0.2 mm 6 mps 741 mmHg 62%
14:00 +5°C° 0.2 mm 6 mps 741 mmHg 62%
15:00 +5°C° 0.1 mm 6 mps 741 mmHg 61%
16:00 +5°C° 0.1 mm 6 mps 741 mmHg 60%
17:00 +5°C° 0.1 mm 6 mps 741 mmHg 59%
18:00 +4°C° 0 mm 6 mps 741 mmHg 65%
19:00 +3°C° 0 mm 5 mps 741 mmHg 71%
20:00 +2°C° 0 mm 5 mps 741 mmHg 77%
21:00 +2°C° 0 mm 5 mps 741 mmHg 80%
22:00 +1°C° 0 mm 5 mps 741 mmHg 84%
23:00 +1°C° 0 mm 6 mps 741 mmHg 87%

24 April, Saturday

Time Temperature Precipitation Wind Pressure Humidity
00:00 -1°C° 0.1 mm 6 mps 741 mmHg 88%
01:00 -1°C° 0.1 mm 6 mps 741 mmHg 88%
02:00 -2°C° 0.1 mm 6 mps 741 mmHg 89%
03:00 -2°C° 0.3 mm 6 mps 742 mmHg 90%
04:00 -2°C° 0.3 mm 6 mps 742 mmHg 91%
05:00 -3°C° 0.3 mm 6 mps 742 mmHg 91%
06:00 -2°C° 0 mm 6 mps 743 mmHg 84%
07:00 -2°C° 0 mm 6 mps 743 mmHg 76%
08:00 -1°C° 0 mm 6 mps 743 mmHg 69%
09:00 +1°C° 0 mm 6 mps 743 mmHg 60%
10:00 +2°C° 0 mm 5 mps 744 mmHg 51%
11:00 +5°C° 0 mm 5 mps 744 mmHg 43%
12:00 +5°C° 0 mm 5 mps 743 mmHg 41%
13:00 +6°C° 0 mm 5 mps 743 mmHg 39%
14:00 +7°C° 0 mm 4 mps 743 mmHg 37%
15:00 +5°C° 0.1 mm 5 mps 742 mmHg 52%
16:00 +3°C° 0.1 mm 5 mps 742 mmHg 66%
17:00 +2°C° 0.1 mm 5 mps 742 mmHg 81%
18:00 +2°C° 0.2 mm 5 mps 742 mmHg 84%
19:00 +1°C° 0.2 mm 5 mps 741 mmHg 87%
20:00 +1°C° 0.2 mm 6 mps 740 mmHg 90%
21:00 +1°C° 0.1 mm 6 mps 740 mmHg 89%
22:00 -1°C° 0.1 mm 6 mps 740 mmHg 88%
23:00 -1°C° 0.1 mm 6 mps 740 mmHg 88%

25 April, Sunday

Time Temperature Precipitation Wind Pressure Humidity
00:00 -1°C° 0.1 mm 6 mps 740 mmHg 89%
01:00 -2°C° 0.1 mm 6 mps 740 mmHg 89%
02:00 -3°C° 0.1 mm 7 mps 741 mmHg 90%
03:00 -3°C° 0 mm 7 mps 741 mmHg 87%
04:00 -3°C° 0 mm 7 mps 741 mmHg 85%
05:00 -3°C° 0 mm 7 mps 741 mmHg 82%
06:00 -3°C° 0 mm 6 mps 741 mmHg 82%
07:00 -3°C° 0 mm 6 mps 741 mmHg 82%
08:00 -3°C° 0 mm 6 mps 741 mmHg 82%
09:00 -2°C° 0.4 mm 6 mps 741 mmHg 81%
10:00 -1°C° 0.4 mm 6 mps 741 mmHg 80%
11:00 +1°C° 0.4 mm 6 mps 741 mmHg 78%
12:00 +2°C° 0.4 mm 6 mps 741 mmHg 72%
13:00 +2°C° 0.4 mm 7 mps 742 mmHg 66%
14:00 +3°C° 0.4 mm 7 mps 742 mmHg 60%
15:00 +3°C° 0.1 mm 7 mps 742 mmHg 62%
16:00 +3°C° 0.1 mm 7 mps 743 mmHg 65%
17:00 +3°C° 0.1 mm 6 mps 743 mmHg 67%
18:00 +2°C° 0.1 mm 6 mps 743 mmHg 73%
19:00 +1°C° 0.1 mm 5 mps 743 mmHg 79%
20:00 0°C° 0.1 mm 5 mps 743 mmHg 85%
21:00 0°C° 0 mm 5 mps 744 mmHg 87%
22:00 -1°C° 0 mm 5 mps 744 mmHg 89%
23:00 -1°C° 0 mm 5 mps 744 mmHg 91%
Show more